User: anonymous   Login
Location: Seasalter
(51.3333°N, 1.0167°E)
Time: 03:57:44
(UTC+00:00)
Language:

Cosmos 2112 Rocket - Orbit

View from above orbital plane
View from above orbital plane
View from above satellite
View from above satellite

Ground track
Ground track

The orbit data is extracted from the following two-line orbital elements,

1 21015U 90111B   24060.83992928  .00000323  00000-0  11885-3 0  9997
2 21015  74.0524 325.2483 0021759 341.0238  19.0102 14.36461311837613
Epoch (UTC): 29 February 2024 20:09:29
Eccentricity: 0.0021759
inclination: 74.0524°
perigee height: 754 km
apogee height: 786 km
right ascension of ascending node: 325.2483°
argument of perigee: 341.0238°
revolutions per day: 14.36461311
mean anomaly at epoch: 19.0102°
orbit number at epoch: 83761

The dashed part of the orbit path shows where the satellite is in the earth's shadow,  

DLR